Location: Brachbach
(49.1847°N, 9.7240°E)
Time: 13:58:09
(UTC+00:00)

Nimbus 7 Rocket - Pass Details

Date: 14 August 2024
Orbit: 921 x 965 km, 99.4° (Epoch: 14 September)

Event Time Altitude Azimuth Distance (km) Brightness Sun altitude
Rises 02:40:27 0° 4° (N) 3,595 8.2 -13.4°
Reaches altitude 10° 02:44:40 10° 335° (NNW) 2,639 7.0 -12.9°
Maximum altitude 02:46:39 12° 315° (NW) 2,501 6.6 -12.7°
Drops below altitude 10° 02:48:38 10° 295° (WNW) 2,629 6.5 -12.4°
Enters shadow 02:51:03 - 275° (W) 3,086 6.7 -12.1°
